Regional Weather Roundup
Issued by NWS

Home | Current Version | Previous Version | Graphics & Text | Print | Product List | Glossary On
Versions: 1 2 3 4 5 6 7 8 9 10 11 12 13 14 15 16 17 18 19 20 21 22 23 24 25 26 27 28 29 30 31
000
ASUS45 KGTF 181310
RWRMT
MONTANA HOURLY WEATHER ROUNDUP
NATIONAL WEATHER SERVICE GREAT FALLS MT
700 AM MDT SAT APR 18 2015

NOTE: "FAIR" INDICATES FEW OR NO CLOUDS BELOW 12000 FEET WITH NO
SIGNIFICANT WEATHER AND/OR OBSTRUCTIONS TO VISIBILITY.

MTZ001>007-043-181400-
WEST OF THE DIVIDE

CITY           SKY/WX    TMP DP  RH WIND       PRES   REMARKS
KALISPELL      SUNNY     33  30  88 CALM      30.12R
MISSOULA       CLEAR     38  30  73 NE3       30.16R
BUTTE          CLEAR     27  23  85 SE3       30.16R
DEER LODGE       N/A     36  27  69 W3        30.19R
EUREKA           N/A     41  34  75 W3        30.18R
HAMILTON         N/A     39  28  65 SW10      30.16R
LIBBY            N/A     32  30  93 CALM      30.18R
$$

MTZ008-052>055-181400-
SOUTHWEST MONTANA

CITY           SKY/WX    TMP DP  RH WIND       PRES   REMARKS
BOZEMAN        CLEAR     30  24  78 SE7       30.11R WCI  23
DILLON         CLEAR     34  25  69 S7        30.12R WCI  28
$$

MTZ009-010-012-014-046-048-049-054-181400-
EAST SLOPES AND CENTRAL MONTANA

CITY           SKY/WX    TMP DP  RH WIND       PRES   REMARKS
GREAT FALLS    PTCLDY    42  30  62 N16       30.08R
MALMSTROM AFB  MOCLDY    43  31  64 E10       30.09R
HELENA         CLEAR     38  27  64 E6        30.09R
$$

MTZ011-013-016-021-045-047-050-051-181400-
NORTH CENTRAL MONTANA

CITY           SKY/WX    TMP DP  RH WIND       PRES   REMARKS
HAVRE          CLOUDY    44  36  73 NW21G32   30.07R
LEWISTOWN      CLEAR     40  30  67 SW14      30.05R
FORT BENTON      N/A     46  32  57 NW13G21   30.09R
$$

MTZ017>020-022>042-056>058-061-062-181400-
EASTERN PLAINS

CITY           SKY/WX    TMP DP  RH WIND       PRES   REMARKS
BAKER          PTCLDY    37  32  82 SE3       30.00F
BILLINGS       PTCLDY    41  30  65 SW17      29.99R
GLASGOW        CLEAR     41  29  62 SE10      29.92S
JORDAN           N/A     43  31  62 S5        29.94S
LIVINGSTON     CLEAR     32  23  69 W6        30.07R WCI  26
MILES CITY     PTCLDY    44  37  76 S7        29.97S
SIDNEY         CLEAR     37  28  70 S5        29.98S
WOLF POINT     CLEAR     36  28  73 NE3       29.94F
BIG TIMBER       N/A     45  21  39 SW17      30.05R
FORSYTH          N/A     43  36  75 CALM      29.97R
PLENTYWOOD       N/A     43  28  56 SE8       29.94F
POPLAR           N/A     39  30  70 CALM      29.94F
$$

REGIONAL REPORTS...DAKOTAS

CITY           SKY/WX    TMP DP  RH WIND       PRES   REMARKS
WILLISTON      CLEAR     43  29  57 CALM      29.98F
MINOT          FAIR      35  27  72 SE6       30.04F WCI  30
DICKINSON      PTCLDY    38  28  67 SE3       29.99S
BEACH          FAIR      37  30  75 S3        30.00S
CROSBY         FAIR      41  27  56 S16       29.97F
WATFORD CITY   FAIR      39  27  60 E5        29.98R
BISMARCK       SUNNY     38  28  67 E7        30.06S
GRAND FORKS    MOSUNNY   39  31  72 E9        30.14S
FARGO          MOSUNNY   40  26  57 CALM      30.11R
BUFFALO SD       N/A     43  34  70 CALM      29.94F
RAPID CITY     CLOUDY    47  45  93 NW5       30.00F
$$

REGIONAL REPORTS...WYOMING/IDAHO/WASHINGTON

CITY           SKY/WX    TMP DP  RH WIND       PRES   REMARKS
GILLETTE       PTCLDY    33  32  96 SE5       30.00S FOG
SHERIDAN       CLEAR     33  28  81 CALM      29.99S
BUFFALO WY     PTCLDY    43  28  55 NW8       29.99F
CODY           CLEAR     39  28  65 SW3       30.03R
YELLOWSTONE LA   N/A     21  17  84 CALM      30.15S
IDAHO FALLS    CLEAR     31  25  78 N3        30.07R
SALMON         CLEAR     30  25  80 CALM      30.16R
BOISE          CLEAR     45  32  60 W3        30.08S
SPOKANE        MOCLDY    48  23  37 NW9       30.20R
$$

REGIONAL REPORTS...ALBERTA

CITY           SKY/WX    TMP DP  RH WIND       PRES   REMARKS
EDMONTON       PTCLDY    36  28  75 W16G23    30.15R WCI  26
LETHBRIDGE     SNOWSHWR  34  32  93 NW15G23   30.24R FOG     WCI  24
MEDICINE HAT   CLOUDY    43  32  65 NW13G21   30.15R
$$

REGIONAL REPORTS...SASKATCHEWAN

CITY           SKY/WX    TMP DP  RH WIND       PRES   REMARKS
SWIFT CURRENT  CLEAR     41  37  87 NW15      29.98R
REGINA         MOCLDY    43  32  65 S14       29.90F
SASKATOON      MOCLDY    41  37  87 NW22G29   29.91R
$$



USA.gov is the U.S. government's official web portal to all federal, state and local government web resources and services.